This is the latest recevied weather packets stored in our database for station/object KC8UZG. If no packets are shown the sender has not sent any weather packets the latest 1 day(s).
| Time | Temp. | Humidity | Pressure | Rain* | Wind** | Luminosity | Snow |
|---|---|---|---|---|---|---|---|
| 1836274695 | 19.44° C | 77% | 1017.7 hPa | 0 mm | 0 m/s | 0 W/m² | - |
| 1836274155 | 20° C | 74% | 1017.9 hPa | 0 mm | 0 m/s | 0 W/m² | - |
| 1778052928 | 6.11° C | 99% | 1007.6 hPa | 1.02 mm | 0.89 m/s, 316° | 0 W/m² | - |
| 1778052335 | 6.11° C | 99% | 1007.6 hPa | 1.27 mm | 0.89 m/s, 320° | 0 W/m² | - |
| 1778051740 | 6.11° C | 99% | - | 0.76 mm | 0.45 m/s, 316° | 0 W/m² | - |
| 1778051119 | 6.67° C | 99% | - | 0.76 mm | 0.45 m/s, 293° | 0 W/m² | - |
| 1778050524 | 6.67° C | 99% | - | 1.27 mm | 0.45 m/s, 332° | 0 W/m² | - |
| 1778049930 | 6.67° C | 99% | 1007.3 hPa | 1.52 mm | 0.89 m/s, 314° | 0 W/m² | - |
| 1778049337 | 6.67° C | 99% | 1007.5 hPa | 2.03 mm | 0.45 m/s, 358° | 0 W/m² | - |
| 1778048715 | 6.67° C | 99% | 1007.6 hPa | 2.03 mm | 0.89 m/s, 332° | 0 W/m² | - |
| 1778048121 | 7.22° C | 99% | 1007.6 hPa | 2.79 mm | 1.34 m/s, 316° | 0 W/m² | - |
| 1778047528 | 7.22° C | 99% | 1007.3 hPa | 3.81 mm | 0.89 m/s, 318° | 0 W/m² | - |
| 1778046933 | 7.78° C | 99% | 1007.2 hPa | 4.57 mm | 0.45 m/s, 326° | 0 W/m² | - |
| 1778046339 | 7.78° C | 99% | 1007.3 hPa | 5.59 mm | 0 m/s | 0 W/m² | - |
| 1778045718 | 7.78° C | 99% | 1007.3 hPa | 5.59 mm | 0.45 m/s, 313° | 0 W/m² | - |
| 1778045124 | 7.78° C | 99% | 1007.4 hPa | 5.59 mm | 0.45 m/s, 339° | 0 W/m² | - |
| 1778044530 | 7.78° C | 99% | 1007.8 hPa | 5.08 mm | 0.89 m/s, 319° | 0 W/m² | - |
| 1778043937 | 7.78° C | 99% | 1008.1 hPa | 4.32 mm | 0.89 m/s, 334° | 0 W/m² | - |
| 1778043315 | 7.78° C | 99% | 1007.8 hPa | 3.56 mm | 0.89 m/s, 309° | 0 W/m² | - |
| 1778042722 | 7.78° C | 99% | 1007.5 hPa | 3.81 mm | 0.89 m/s, 317° | 0 W/m² | - |
| 1778042128 | 7.78° C | 99% | 1007.3 hPa | 3.56 mm | 0.89 m/s, 311° | 0 W/m² | - |
| 1778041533 | 8.33° C | 99% | 1007.2 hPa | 3.3 mm | 1.34 m/s, 333° | 0 W/m² | - |
| 1778040939 | 8.33° C | 99% | 1007.3 hPa | 3.05 mm | 0.89 m/s, 322° | 0 W/m² | - |
| 1778040318 | 8.33° C | 99% | 1007.6 hPa | 2.54 mm | 1.79 m/s, 334° | 0 W/m² | - |
| 1778039725 | 8.89° C | 99% | 1007.6 hPa | 2.03 mm | 0.89 m/s, 318° | 0 W/m² | - |
* Rain latest hour (hover to see other rain measurements)
** Current wind speed in m/s (hover to see current wind gust speed)